User: anonymous   Login
Location: Frizzleburg
(41.0764°N, 80.4548°W)
Time: 20:47:51
(UTC+00:00)
Language:

SL-16 R/B - Orbit

View from above orbital plane
View from above orbital plane
View from above satellite
View from above satellite

Ground track
Ground track

The orbit data is extracted from the following two-line orbital elements,

1 31793U 07029B   20023.51807285 +.00000170 +00000-0 +11361-3 0  9997
2 31793 070.9726 192.9164 0001899 253.2247 162.1477 14.14422135649059
Epoch (UTC): 23 January 2020 12:26:01
Eccentricity: 0.0001899
inclination: 70.9726°
perigee height: 843 km
apogee height: 845 km
right ascension of ascending node: 192.9164°
argument of perigee: 253.2247°
revolutions per day: 14.14422135
mean anomaly at epoch: 162.1477°
orbit number at epoch: 64905

The dashed part of the orbit path shows where the satellite is in the earth's shadow,  

DLR